AT&T T-16

Last updated on Fri Oct 04 2024 00:02:42 GMT+0000 (Coordinated Universal Time)

1 44333U 19034A 24277.38868883 -.00000110 00000+0 00000+0 0 9999 2 44333 0.0190 227.9065 0001853 229.4605 314.3028 1.00270889 19393
UTC large
Height (km)
Speed (km/s)
/
Latitude / Longitude
Inclination (degrees)
Orbital Period (minutes)
Azimuth
Elevation
Range (km)
Doppler Factor

Next 0 passes for location: London (51.5072 / 0.1276)

Sorry there are no passes over London.